EST,Max TemperatureF,Mean TemperatureF,Min TemperatureF,Max Dew PointF,MeanDew PointF,Min DewpointF,Max Humidity, Mean Humidity, Min Humidity, Max Sea Level PressureIn, Mean Sea Level PressureIn, Min Sea Level PressureIn, Max VisibilityMiles, Mean VisibilityMiles, Min VisibilityMiles, Max Wind SpeedMPH, Mean Wind SpeedMPH, Max Gust SpeedMPH,PrecipitationIn, CloudCover, Events, WindDirDegrees
2013-12-1,44,36,28,33,28,24,85,67,49,30.09,30.05,30.01,10,9,6,13,4,16,0.00,4,,316
2013-12-2,41,33,25,29,26,23,92,76,59,30.01,29.94,29.88,10,6,0,8,3,14,0.00,5,Fog,109
2013-12-3,45,38,31,43,33,24,92,81,69,29.88,29.83,29.79,10,4,1,13,6,17,0.09,8,Rain-Snow,125
2013-12-4,58,49,40,54,45,39,96,88,80,29.83,29.75,29.59,9,3,0,18,8,25,0.01,7,Fog-Rain,158
2013-12-5,58,44,29,52,29,19,86,74,61,30.20,29.92,29.60,10,10,9,26,14,33,0.00,7,,265
2013-12-6,29,24,19,19,16,14,84,73,62,30.45,30.29,30.16,10,10,9,15,9,18,T,8,Snow,317
2013-12-7,23,18,12,18,12,9,80,69,57,30.65,30.58,30.42,10,8,3,15,7,20,T,7,Snow,307
2013-12-8,26,20,13,23,15,9,92,75,57,30.60,30.28,29.95,10,5,1,13,5,17,0.09,6,Snow,95
2013-12-9,27,22,17,24,19,9,84,73,62,30.16,30.00,29.88,10,5,1,22,13,28,T,8,Rain-Snow,231
2013-12-10,23,14,4,14,8,-2,80,67,53,30.25,30.10,29.96,10,6,1,25,13,35,T,7,Snow,239
2013-12-11,21,17,13,17,12,6,84,73,61,30.49,30.31,30.21,10,4,0,22,9,25,T,8,Fog-Snow,261
2013-12-12,21,13,4,13,4,-8,86,68,50,30.49,30.37,30.24,10,8,3,21,11,28,T,7,Snow,230
2013-12-13,30,23,15,19,15,10,80,69,58,30.25,30.21,30.14,10,10,10,13,6,17,0.00,6,,160
2013-12-14,26,22,17,19,17,14,88,82,75,30.17,29.99,29.87,10,3,0,14,8,21,0.15,8,Snow,54
2013-12-15,26,22,18,20,14,10,84,76,67,30.08,29.93,29.84,10,5,1,20,9,28,T,8,Snow,275
2013-12-16,20,13,5,13,10,2,87,75,62,30.19,30.10,30.00,10,7,1,9,4,10,0.04,5,Snow,182
2013-12-17,28,23,17,25,21,12,92,85,78,30.03,29.96,29.88,10,4,1,22,10,26,0.02,8,Snow,224
2013-12-18,30,27,24,24,18,12,81,69,57,30.17,30.04,29.89,10,10,9,21,10,25,T,5,,208
2013-12-19,42,36,30,36,31,20,85,72,58,29.98,29.91,29.85,10,8,1,16,5,21,T,4,Rain,212
2013-12-20,40,36,32,39,34,30,100,95,89,29.85,29.78,29.72,7,1,0,9,3,13,0.33,8,Fog-Rain,61
2013-12-21,35,34,33,33,31,28,100,91,82,29.88,29.80,29.66,10,3,0,16,5,25,0.44,8,Fog-Rain,50
2013-12-22,35,34,32,31,30,28,89,87,85,30.02,29.76,29.56,10,5,1,16,7,25,0.20,8,Rain-Snow,302
2013-12-23,32,23,13,28,21,7,92,80,67,30.38,30.19,29.99,10,6,1,17,11,23,0.08,8,Snow,268
2013-12-24,17,12,6,10,6,1,84,76,67,30.54,30.46,30.33,10,8,2,16,7,21,T,5,Snow,217
2013-12-25,25,19,12,22,18,9,88,78,67,30.47,30.21,30.06,10,5,0,18,11,24,0.01,8,Fog-Snow,188
2013-12-26,30,27,23,24,19,15,88,76,63,30.28,30.17,30.02,10,7,2,17,10,22,T,8,Snow,232
2013-12-27,39,35,30,30,27,24,85,75,64,30.32,30.22,30.10,10,10,8,20,9,23,T,5,,208
2013-12-28,45,38,31,32,30,27,82,70,58,30.12,30.03,29.90,10,10,10,18,12,26,0.00,0,,209
2013-12-29,40,30,20,32,26,14,81,73,64,30.08,29.84,29.74,10,7,1,22,11,26,T,5,Rain-Snow,289
2013-12-30,21,18,15,14,10,7,80,68,56,30.29,30.19,30.05,10,8,2,15,6,20,T,8,Snow,284
2013-12-31,17,15,14,11,9,9,81,78,73,30.30,30.18,30.07,5,3,1,15,10,20,0.00,8,Snow,242